This is the latest recevied weather packets stored in our database for station/object KE5KUL-13. If no packets are shown the sender has not sent any weather packets the latest 10 day(s).
| Time | Temp. | Humidity | Pressure | Rain* | Wind** | Luminosity | Snow |
|---|---|---|---|---|---|---|---|
| 1777527617 | 12.22° C | 55% | 1018.6 hPa | 0 mm | - | - | - |
| 1777527017 | 12.22° C | 54% | 1018.7 hPa | 0 mm | - | - | - |
| 1777526419 | 12.78° C | 54% | 1018.8 hPa | 0 mm | - | - | - |
| 1777525819 | 12.78° C | 53% | 1018.4 hPa | 0 mm | - | - | - |
| 1777525219 | 12.78° C | 52% | 1018.3 hPa | 0 mm | - | - | - |
| 1777524618 | 12.78° C | 52% | 1018.3 hPa | 0 mm | - | - | - |
| 1777524018 | 12.78° C | 52% | 1018.1 hPa | 0 mm | - | - | - |
| 1777523418 | 13.33° C | 51% | 1017.9 hPa | 0 mm | - | - | - |
| 1777522818 | 13.33° C | 51% | 1018.5 hPa | 0 mm | - | - | - |
| 1777522218 | 13.33° C | 50% | 1018.2 hPa | 0 mm | - | - | - |
| 1777521618 | 13.33° C | 49% | 1018.2 hPa | 0 mm | - | - | - |
| 1777521018 | 13.89° C | 48% | 1018.2 hPa | 0 mm | - | - | - |
| 1777520418 | 13.89° C | 48% | 1017.9 hPa | 0 mm | - | - | - |
| 1777519818 | 14.44° C | 46% | 1018 hPa | 0 mm | - | - | - |
| 1777519218 | 15° C | 46% | 1017.8 hPa | 0 mm | - | - | - |
| 1777518617 | 15.56° C | 46% | 1017.7 hPa | 0 mm | - | - | - |
| 1777518018 | 15.56° C | 46% | 1017.4 hPa | 0 mm | - | - | - |
| 1777517418 | 15.56° C | 45% | 1017.2 hPa | 0 mm | - | - | - |
| 1777516818 | 16.11° C | 44% | 1017 hPa | 0 mm | - | - | - |
| 1777516217 | 16.11° C | 44% | 1017 hPa | 0 mm | - | - | - |
| 1777515618 | 16.11° C | 43% | 1016.9 hPa | 0 mm | - | - | - |
| 1777515018 | 16.67° C | 42% | 1016.6 hPa | 0 mm | - | - | - |
| 1777514417 | 16.67° C | 42% | 1016.3 hPa | 0 mm | - | - | - |
| 1777513817 | 17.22° C | 40% | 1016.2 hPa | 0 mm | - | - | - |
| 1777512618 | 17.78° C | 38% | 1015.8 hPa | 0 mm | - | - | - |
* Rain latest hour (hover to see other rain measurements)
** Current wind speed in m/s (hover to see current wind gust speed)